Track STARLINK-3886 now! 10-day predictions STARLINK-3886 is classified as:
1 52582U 22051AY 22180.58334491 -.01054348 00000-0 -85124-2 0 9991 2 52582 53.2174 62.1465 0002214 19.7836 236.3977 15.72738894 1308